| time (UTC) | temp C | wind direction | speed KPH | gust KPH | rain 1hr cm | rain 24hr cm | rain mn cm | humidity % | barometer mb |
| 20260504081553 | 10 | 222 | 4.8 | 9.7 | 0.00 | 0.00 | 0.00 | 66 | 1000.2 |
| 20260504080109 | 10 | 217 | 6.4 | 9.7 | 0.00 | 0.00 | 0.00 | 65 | 1000.4 |
| 20260504050012 | 13 | 171 | 6.4 | 12.9 | 0.00 | 0.00 | 0.00 | 52 | 1002.2 |
| 20260504044511 | 13 | 153 | 6.4 | 12.9 | 0.00 | 0.00 | 0.00 | 51 | 1002.3 |
| 20260504043010 | 14 | 155 | 4.8 | 11.3 | 0.00 | 0.00 | 0.00 | 49 | 1002.5 |
| 20260504041509 | 15 | 120 | 8.0 | 11.3 | 0.00 | 0.00 | 0.00 | 46 | 1002.9 |
| 20260504040017 | 15 | 360 | 6.4 | 11.3 | 0.00 | 0.00 | 0.00 | 44 | 1003.2 |
| 20260504034507 | 15 | 127 | 4.8 | 9.7 | 0.00 | 0.00 | 0.00 | 44 | 1003.1 |
| 20260504033004 | 15 | 114 | 6.4 | 11.3 | 0.00 | 0.00 | 0.00 | 45 | 1003.0 |
| 20260504031503 | 16 | 170 | 3.2 | 4.8 | 0.00 | 0.00 | 0.00 | 42 | 1003.3 |
| 20260504030002 | 17 | 161 | 0.0 | 4.8 | 0.00 | 0.00 | 0.00 | 41 | 1003.6 |
| 20260504024502 | 17 | 163 | 1.6 | 4.8 | 0.00 | 0.00 | 0.00 | 41 | 1003.6 |
| 20260504023104 | 17 | 162 | 3.2 | 4.8 | 0.00 | 0.00 | 0.00 | 40 | 1003.6 |
| 20260504021600 | 17 | 162 | 3.2 | 4.8 | 0.00 | 0.00 | 0.00 | 39 | 1003.6 |
| 20260504021502 | 17 | 163 | 3.2 | 6.4 | 0.00 | 0.00 | 0.00 | 39 | 1003.6 |
| 20260504014607 | 18 | 157 | 3.2 | 4.8 | 0.00 | 0.00 | 0.00 | 38 | 1003.6 |
| 20260504013106 | 18 | 176 | 3.2 | 9.7 | 0.00 | 0.00 | 0.00 | 38 | 1003.6 |
| 20260504011558 | 20 | 279 | 0.0 | 3.2 | 0.00 | 0.00 | 0.00 | 36 | 1003.8 |
| 20260504010056 | 20 | 281 | 1.6 | 4.8 | 0.00 | 0.00 | 0.00 | 35 | 1004.0 |
| 20260504004555 | 20 | 282 | 1.6 | 9.7 | 0.00 | 0.00 | 0.00 | 34 | 1004.3 |
| 20260504003102 | 20 | 290 | 6.4 | 12.9 | 0.00 | 0.00 | 0.00 | 33 | 1004.5 |
| 20260504001605 | 20 | 281 | 11.3 | 16.1 | 0.00 | 0.00 | 0.00 | 33 | 1004.8 |
| 20260504000105 | 20 | 285 | 8.0 | 17.7 | 0.00 | 0.00 | 0.00 | 32 | 1005.1 |
| 20260503234546 | 20 | 282 | 9.7 | 27.4 | 0.00 | 0.00 | 0.00 | 31 | 1005.3 |
| 20260503233046 | 21 | 263 | 9.7 | 24.1 | 0.00 | 0.00 | 0.00 | 30 | 1005.5 |
| 20260503231544 | 21 | 275 | 12.9 | 29.0 | 0.00 | 0.00 | 0.00 | 29 | 1005.4 |
| 20260503230043 | 21 | 248 | 11.3 | 27.4 | 0.00 | 0.00 | 0.00 | 29 | 1005.5 |
| 20260503224545 | 21 | 224 | 12.9 | 27.4 | 0.00 | 0.00 | 0.00 | 29 | 1005.5 |
| 20260503223041 | 21 | 253 | 12.9 | 20.9 | 0.00 | 0.00 | 0.00 | 29 | 1005.7 |
| 20260503221542 | 21 | 296 | 14.5 | 25.7 | 0.00 | 0.00 | 0.00 | 30 | 1005.8 |
| 20260503220036 | 21 | 319 | 17.7 | 30.6 | 0.00 | 0.00 | 0.00 | 29 | 1005.9 |
| 20260503214534 | 21 | 279 | 9.7 | 27.4 | 0.00 | 0.00 | 0.00 | 31 | 1006.1 |
| 20260503213031 | 21 | 276 | 8.0 | 16.1 | 0.00 | 0.00 | 0.00 | 32 | 1006.4 |
| 20260503211531 | 21 | 252 | 11.3 | 25.7 | 0.00 | 0.00 | 0.00 | 32 | 1006.7 |
| 20260503210027 | 21 | 250 | 16.1 | 29.0 | 0.00 | 0.00 | 0.00 | 31 | 1006.9 |
| 20260503204529 | 21 | 286 | 16.1 | 27.4 | 0.00 | 0.00 | 0.00 | 31 | 1007.2 |
| 20260503203024 | 20 | 277 | 9.7 | 29.0 | 0.00 | 0.00 | 0.00 | 33 | 1007.5 |
| 20260503201521 | 20 | 334 | 11.3 | 27.4 | 0.00 | 0.00 | 0.00 | 33 | 1007.6 |
| 20260503200021 | 20 | 293 | 16.1 | 29.0 | 0.00 | 0.00 | 0.00 | 32 | 1007.8 |
| 20260503194519 | 20 | 286 | 6.4 | 25.7 | 0.00 | 0.00 | 0.00 | 33 | 1007.9 |
| 20260503193035 | 20 | 327 | 14.5 | 20.9 | 0.00 | 0.00 | 0.00 | 33 | 1008.0 |
| 20260503191518 | 20 | 5 | 9.7 | 24.1 | 0.00 | 0.00 | 0.00 | 35 | 1008.2 |
| 20260503190022 | 20 | 262 | 6.4 | 24.1 | 0.00 | 0.00 | 0.00 | 34 | 1008.4 |
| 20260503184522 | 20 | 324 | 11.3 | 30.6 | 0.00 | 0.00 | 0.00 | 33 | 1008.5 |
| 20260503183014 | 20 | 298 | 19.3 | 30.6 | 0.00 | 0.00 | 0.00 | 31 | 1008.8 |
| 20260503181514 | 19 | 315 | 11.3 | 25.7 | 0.00 | 0.00 | 0.00 | 35 | 1009.0 |
| 20260503180018 | 19 | 5 | 12.9 | 27.4 | 0.00 | 0.00 | 0.00 | 35 | 1009.3 |
| 20260503174511 | 18 | 263 | 8.0 | 22.5 | 0.00 | 0.00 | 0.00 | 39 | 1009.6 |
| 20260503173021 | 19 | 302 | 8.0 | 19.3 | 0.00 | 0.00 | 0.00 | 36 | 1009.7 |
| 20260503171517 | 18 | 314 | 1.6 | 12.9 | 0.00 | 0.00 | 0.00 | 41 | 1010.0 |